Location: Unspecified
(0.0000°N, 0.0000°E)
Time: 23:53:10
(UTC+00:00)

Explorer 27 - Pass Details

Date: 24 May 2026
Orbit: 932 x 1295 km, 41.2° (Epoch: 7 June)

Event Time Altitude Azimuth Distance (km) Brightness Sun altitude
Exits shadow 04:57:41 16° 272° (W) 2,217 9.3 -13.8°
Maximum altitude 05:01:31 29° 222° (SW) 1,639 8.7 -12.9°
Drops below altitude 10° 05:06:54 10° 164° (SSE) 2,677 10.3 -11.7°
Sets 05:09:56 0° 153° (SSE) 3,662 11.1 -11.0°
